PGT5WB LTFJ-LTFH

Flight info

Callsign PGT5WB
Flight time 0h 55m
Altitude 35000
Route VICEN UT380 ASMAP UL333 LATGA UT363 ESB UT364 ILHAN UW71 HAVZA
Aircraft A21N/M-SDE2E3FGHIJ1RWXY/LB1

Departure

Time 2026-04-22 12:37
Airport Istanbul Sabiha Gökçen International Airport (LTFJ)

Arrival

Time 2026-04-22 13:33
Airport Samsun-Çarşamba Airport (LTFH)
Time Latitude Longitude Altitude Speed Heading
2026-04-22 12:18 40.90736 29.32002 321 ft 0 kts 332°
2026-04-22 12:26 40.90735 29.32002 321 ft 0 kts 332°
2026-04-22 12:27 40.90725 29.32009 321 ft 2 kts 332°
2026-04-22 12:27 40.90711 29.32018 321 ft 2 kts 332°
2026-04-22 12:27 40.90698 29.32027 321 ft 2 kts 332°
2026-04-22 12:27 40.90685 29.32036 321 ft 1 kts 332°
2026-04-22 12:28 40.90675 29.32045 321 ft 2 kts 292°
2026-04-22 12:28 40.90675 29.32062 321 ft 1 kts 243°
2026-04-22 12:28 40.90682 29.32078 321 ft 2 kts 246°
2026-04-22 12:28 40.90685 29.32088 321 ft 0 kts 248°
2026-04-22 12:29 40.90686 29.32092 321 ft 0 kts 244°
2026-04-22 12:30 40.90685 29.32088 321 ft 2 kts 244°
2026-04-22 12:31 40.90673 29.32052 321 ft 6 kts 246°
2026-04-22 12:31 40.90649 29.31982 321 ft 10 kts 244°
2026-04-22 12:31 40.90584 29.31939 321 ft 12 kts 163°
2026-04-22 12:31 40.90492 29.31983 321 ft 15 kts 180°
2026-04-22 12:32 40.90420 29.31882 320 ft 16 kts 244°
2026-04-22 12:32 40.90306 29.31574 320 ft 19 kts 244°
2026-04-22 12:32 40.90244 29.31408 320 ft 20 kts 244°
2026-04-22 12:33 40.90181 29.31233 321 ft 21 kts 243°
2026-04-22 12:33 40.90116 29.31059 321 ft 21 kts 244°
2026-04-22 12:33 40.90051 29.30883 321 ft 21 kts 244°
2026-04-22 12:33 40.89983 29.30697 321 ft 22 kts 243°
2026-04-22 12:34 40.89914 29.30511 321 ft 22 kts 244°
2026-04-22 12:34 40.89844 29.30320 321 ft 23 kts 244°
2026-04-22 12:34 40.89771 29.30119 316 ft 25 kts 247°
2026-04-22 12:34 40.89694 29.29908 316 ft 25 kts 243°
2026-04-22 12:35 40.89617 29.29706 316 ft 25 kts 244°
2026-04-22 12:35 40.89536 29.29485 311 ft 27 kts 243°
2026-04-22 12:35 40.89464 29.29296 306 ft 19 kts 231°
2026-04-22 12:35 40.89343 29.29285 304 ft 19 kts 153°
2026-04-22 12:36 40.89281 29.29362 305 ft 7 kts 76°
2026-04-22 12:36 40.89304 29.29430 307 ft 15 kts 64°
2026-04-22 12:36 40.89470 29.29873 318 ft 90 kts 63°
2026-04-22 12:36 40.89834 29.30876 322 ft 151 kts 64°
2026-04-22 12:37 40.90315 29.32270 678 ft 173 kts 62°
2026-04-22 12:37 40.90813 29.33647 1519 ft 168 kts 60°
2026-04-22 12:37 40.91325 29.35002 2341 ft 168 kts 60°
2026-04-22 12:37 40.91868 29.36430 2908 ft 181 kts 60°
2026-04-22 12:38 40.92447 29.37971 3434 ft 197 kts 61°
2026-04-22 12:38 40.92966 29.39726 3900 ft 219 kts 77°
2026-04-22 12:38 40.92834 29.41859 4308 ft 250 kts 107°
2026-04-22 12:38 40.91821 29.43822 4916 ft 271 kts 138°
2026-04-22 12:39 40.90169 29.45032 5700 ft 281 kts 154°
2026-04-22 12:39 40.86762 29.47559 7405 ft 288 kts 129°
2026-04-22 12:39 40.85855 29.49853 8226 ft 289 kts 106°
2026-04-22 12:40 40.85349 29.52456 8978 ft 295 kts 103°
2026-04-22 12:40 40.84876 29.55112 9686 ft 302 kts 104°
2026-04-22 12:40 40.84344 29.57814 10394 ft 309 kts 107°
2026-04-22 12:40 40.83742 29.60591 10802 ft 325 kts 108°
2026-04-22 12:41 40.83069 29.63504 11173 ft 342 kts 109°
2026-04-22 12:41 40.82335 29.66561 11492 ft 360 kts 111°
2026-04-22 12:41 40.81546 29.69806 11863 ft 375 kts 111°
2026-04-22 12:41 40.80859 29.73178 12440 ft 386 kts 102°
2026-04-22 12:42 40.80553 29.76712 13098 ft 393 kts 97°
2026-04-22 12:42 40.80353 29.80317 13681 ft 400 kts 96°
2026-04-22 12:42 40.80151 29.83998 14283 ft 408 kts 97°
2026-04-22 12:42 40.79919 29.87734 14901 ft 413 kts 97°
2026-04-22 12:43 40.79663 29.91502 15545 ft 416 kts 97°
2026-04-22 12:43 40.79390 29.95283 16200 ft 419 kts 98°
2026-04-22 12:43 40.79102 29.99139 16843 ft 422 kts 98°
2026-04-22 12:43 40.78808 30.02982 17466 ft 425 kts 98°
2026-04-22 12:44 40.78509 30.06834 18039 ft 429 kts 98°
2026-04-22 12:44 40.78201 30.10780 18631 ft 433 kts 98°
2026-04-22 12:44 40.77890 30.14734 19205 ft 436 kts 98°
2026-04-22 12:44 40.77574 30.18716 19743 ft 441 kts 97°
2026-04-22 12:45 40.77255 30.22747 20242 ft 446 kts 97°
2026-04-22 12:45 40.76932 30.26822 20727 ft 450 kts 97°
2026-04-22 12:45 40.76604 30.30923 21267 ft 453 kts 97°
2026-04-22 12:45 40.76268 30.35096 21758 ft 457 kts 97°
2026-04-22 12:46 40.75933 30.39261 22268 ft 460 kts 97°
2026-04-22 12:46 40.75599 30.43404 22874 ft 460 kts 97°
2026-04-22 12:46 40.75257 30.47606 23403 ft 462 kts 97°
2026-04-22 12:46 40.74912 30.51839 23866 ft 466 kts 97°
2026-04-22 12:47 40.74569 30.56046 24362 ft 469 kts 97°
2026-04-22 12:47 40.74219 30.60309 24824 ft 472 kts 97°
2026-04-22 12:47 40.73865 30.64593 25305 ft 474 kts 97°
2026-04-22 12:47 40.73501 30.68975 25750 ft 477 kts 98°
2026-04-22 12:48 40.73141 30.73298 26167 ft 479 kts 98°
2026-04-22 12:48 40.72773 30.77674 26577 ft 481 kts 98°
2026-04-22 12:48 40.72405 30.82026 26968 ft 483 kts 98°
2026-04-22 12:48 40.72031 30.86447 27336 ft 486 kts 98°
2026-04-22 12:49 40.71658 30.90821 27710 ft 488 kts 98°
2026-04-22 12:49 40.71276 30.95268 28068 ft 490 kts 98°
2026-04-22 12:49 40.70893 30.99739 28409 ft 492 kts 98°
2026-04-22 12:49 40.70512 31.04179 28743 ft 494 kts 98°
2026-04-22 12:50 40.70122 31.08672 29092 ft 496 kts 98°
2026-04-22 12:50 40.69723 31.13240 29392 ft 498 kts 98°
2026-04-22 12:50 40.69323 31.17837 29682 ft 501 kts 98°
2026-04-22 12:50 40.68926 31.22335 30021 ft 501 kts 98°
2026-04-22 12:51 40.68524 31.26889 30421 ft 501 kts 98°
2026-04-22 12:51 40.68122 31.31425 30829 ft 500 kts 98°
2026-04-22 12:51 40.67716 31.35975 31196 ft 499 kts 98°
2026-04-22 12:51 40.67316 31.40451 31563 ft 498 kts 98°
2026-04-22 12:52 40.66909 31.44984 31930 ft 497 kts 98°
2026-04-22 12:52 40.66500 31.49524 32271 ft 496 kts 98°
2026-04-22 12:52 40.66096 31.53969 32566 ft 496 kts 98°
2026-04-22 12:52 40.65687 31.58464 32879 ft 496 kts 98°
2026-04-22 12:53 40.65274 31.62973 33198 ft 495 kts 98°
2026-04-22 12:53 40.64863 31.67447 33444 ft 495 kts 99°
2026-04-22 12:53 40.64447 31.71950 33633 ft 497 kts 98°
2026-04-22 12:53 40.64032 31.76439 33853 ft 497 kts 98°
2026-04-22 12:54 40.63611 31.80953 34064 ft 498 kts 98°
2026-04-22 12:54 40.63189 31.85469 34229 ft 499 kts 98°
2026-04-22 12:54 40.62762 31.90023 34446 ft 499 kts 98°
2026-04-22 12:54 40.62338 31.94524 34639 ft 500 kts 98°
2026-04-22 12:55 40.61912 31.99031 34813 ft 501 kts 98°
2026-04-22 12:55 40.61043 32.08129 34914 ft 501 kts 98°
2026-04-22 12:56 40.60171 32.17226 34919 ft 502 kts 99°
2026-04-22 12:56 40.59291 32.26281 34912 ft 502 kts 98°
2026-04-22 12:57 40.58407 32.35321 34909 ft 501 kts 98°
2026-04-22 12:57 40.57516 32.44380 34912 ft 501 kts 98°
2026-04-22 12:58 40.56616 32.53463 34912 ft 501 kts 98°
2026-04-22 12:58 40.55712 32.62473 34908 ft 500 kts 98°
2026-04-22 12:59 40.54801 32.71504 34908 ft 498 kts 99°
2026-04-22 12:59 40.53888 32.80473 34911 ft 498 kts 99°
2026-04-22 13:00 40.52965 32.89477 34911 ft 499 kts 99°
2026-04-22 13:00 40.52033 32.98500 34908 ft 498 kts 98°
2026-04-22 13:01 40.51100 33.07465 34912 ft 497 kts 99°
2026-04-22 13:01 40.50159 33.16432 34913 ft 497 kts 98°
2026-04-22 13:02 40.49210 33.25407 34913 ft 498 kts 99°
2026-04-22 13:02 40.48262 33.34318 34907 ft 498 kts 98°
2026-04-22 13:03 40.47297 33.43330 34909 ft 498 kts 98°
2026-04-22 13:03 40.46330 33.52293 34901 ft 497 kts 99°
2026-04-22 13:04 40.45430 33.61220 34903 ft 498 kts 95°
2026-04-22 13:04 40.45401 33.70245 34901 ft 497 kts 85°
2026-04-22 13:05 40.46547 33.79211 34898 ft 496 kts 74°
2026-04-22 13:05 40.48632 33.87801 34893 ft 496 kts 69°
2026-04-22 13:06 40.50935 33.96277 34892 ft 495 kts 66°
2026-04-22 13:06 40.53496 34.04609 34889 ft 495 kts 65°
2026-04-22 13:07 40.56096 34.12999 34897 ft 495 kts 65°
2026-04-22 13:07 40.58670 34.21350 34897 ft 495 kts 65°
2026-04-22 13:08 40.61225 34.29691 34894 ft 495 kts 66°
2026-04-22 13:08 40.63789 34.38092 34892 ft 495 kts 66°
2026-04-22 13:09 40.66341 34.46479 34892 ft 494 kts 66°
2026-04-22 13:09 40.68881 34.54848 34891 ft 494 kts 66°
2026-04-22 13:10 40.71425 34.63259 34330 ft 498 kts 66°
2026-04-22 13:10 40.72691 34.67453 33642 ft 499 kts 66°
2026-04-22 13:10 40.73964 34.71690 32935 ft 499 kts 66°
2026-04-22 13:10 40.75242 34.75956 32234 ft 498 kts 67°
2026-04-22 13:11 40.76488 34.80167 31512 ft 498 kts 67°
2026-04-22 13:11 40.77736 34.84416 30791 ft 498 kts 67°
2026-04-22 13:11 40.78971 34.88627 30073 ft 497 kts 67°
2026-04-22 13:11 40.80220 34.92883 29332 ft 497 kts 67°
2026-04-22 13:12 40.81462 34.97125 28861 ft 490 kts 67°
2026-04-22 13:12 40.82663 35.01238 28413 ft 483 kts 68°
2026-04-22 13:12 40.83871 35.05377 27926 ft 478 kts 68°
2026-04-22 13:12 40.85051 35.09423 27445 ft 473 kts 68°
2026-04-22 13:13 40.86216 35.13417 26960 ft 469 kts 68°
2026-04-22 13:13 40.87383 35.17431 26469 ft 464 kts 68°
2026-04-22 13:13 40.88524 35.21361 25999 ft 460 kts 68°
2026-04-22 13:13 40.89656 35.25262 25531 ft 456 kts 68°
2026-04-22 13:14 40.90787 35.29171 25042 ft 452 kts 67°
2026-04-22 13:14 40.91898 35.33009 24570 ft 449 kts 68°
2026-04-22 13:14 40.93008 35.36859 24093 ft 445 kts 68°
2026-04-22 13:14 40.94094 35.40630 23639 ft 441 kts 68°
2026-04-22 13:15 40.95181 35.44406 23173 ft 438 kts 68°
2026-04-22 13:15 40.96256 35.48136 22708 ft 435 kts 68°
2026-04-22 13:15 40.97320 35.51836 22245 ft 432 kts 68°
2026-04-22 13:15 40.98379 35.55529 21767 ft 430 kts 68°
2026-04-22 13:16 40.99435 35.59213 21295 ft 428 kts 68°
2026-04-22 13:16 41.00486 35.62886 20820 ft 426 kts 68°
2026-04-22 13:16 41.01521 35.66505 20357 ft 424 kts 69°
2026-04-22 13:16 41.02566 35.70154 19872 ft 422 kts 69°
2026-04-22 13:17 41.03618 35.73743 19388 ft 420 kts 69°
2026-04-22 13:17 41.04676 35.77330 18947 ft 418 kts 69°
2026-04-22 13:17 41.05735 35.80913 18453 ft 416 kts 69°
2026-04-22 13:17 41.06776 35.84449 17977 ft 415 kts 69°
2026-04-22 13:18 41.07810 35.87980 17496 ft 414 kts 69°
2026-04-22 13:18 41.08855 35.91552 17013 ft 412 kts 69°
2026-04-22 13:18 41.09866 35.95078 16524 ft 410 kts 70°
2026-04-22 13:18 41.10834 35.98612 16049 ft 408 kts 71°
2026-04-22 13:19 41.11779 36.02113 15585 ft 406 kts 71°
2026-04-22 13:19 41.12725 36.05626 15134 ft 403 kts 71°
2026-04-22 13:19 41.13660 36.09088 14693 ft 400 kts 71°
2026-04-22 13:19 41.14594 36.12543 14227 ft 398 kts 71°
2026-04-22 13:20 41.15526 36.15992 13802 ft 395 kts 71°
2026-04-22 13:20 41.16442 36.19380 13358 ft 392 kts 71°
2026-04-22 13:20 41.17357 36.22765 12910 ft 389 kts 71°
2026-04-22 13:20 41.18267 36.26137 12488 ft 386 kts 71°
2026-04-22 13:21 41.19166 36.29476 12086 ft 383 kts 71°
2026-04-22 13:21 41.20046 36.32746 11651 ft 381 kts 71°
2026-04-22 13:21 41.20941 36.36078 11216 ft 378 kts 72°
2026-04-22 13:21 41.21813 36.39325 10811 ft 375 kts 72°
2026-04-22 13:22 41.22678 36.42554 10470 ft 369 kts 72°
2026-04-22 13:22 41.23526 36.45716 10296 ft 357 kts 72°
2026-04-22 13:22 41.24347 36.48786 10170 ft 344 kts 72°
2026-04-22 13:22 41.25133 36.51728 10052 ft 332 kts 72°
2026-04-22 13:23 41.25883 36.54543 9907 ft 322 kts 72°
2026-04-22 13:23 41.26625 36.57339 9546 ft 319 kts 72°
2026-04-22 13:23 41.27359 36.60107 9182 ft 317 kts 72°
2026-04-22 13:23 41.28081 36.62836 8836 ft 314 kts 72°
2026-04-22 13:24 41.28804 36.65565 8479 ft 311 kts 72°
2026-04-22 13:24 41.29521 36.68286 8119 ft 308 kts 74°
2026-04-22 13:24 41.29794 36.71014 7946 ft 290 kts 102°
2026-04-22 13:24 41.29075 36.73438 7592 ft 279 kts 128°
2026-04-22 13:25 41.27874 36.75399 7219 ft 276 kts 135°
2026-04-22 13:25 41.26619 36.77301 6863 ft 274 kts 133°
2026-04-22 13:25 41.25413 36.79248 6502 ft 273 kts 131°
2026-04-22 13:25 41.24254 36.81236 6162 ft 270 kts 129°
2026-04-22 13:26 41.23126 36.83238 5817 ft 268 kts 128°
2026-04-22 13:26 41.22025 36.85194 5478 ft 266 kts 131°
2026-04-22 13:26 41.20578 36.86655 5105 ft 260 kts 163°
2026-04-22 13:26 41.18831 36.86728 4778 ft 253 kts 199°
2026-04-22 13:27 41.17380 36.85550 4476 ft 247 kts 223°
2026-04-22 13:27 41.16152 36.84010 4168 ft 245 kts 224°
2026-04-22 13:27 41.15043 36.82643 3889 ft 244 kts 223°
2026-04-22 13:27 41.13648 36.80989 3552 ft 243 kts 222°
2026-04-22 13:28 41.12473 36.79392 3227 ft 244 kts 242°
2026-04-22 13:28 41.12108 36.77298 2963 ft 237 kts 282°
2026-04-22 13:28 41.12786 36.75354 2859 ft 233 kts 309°
2026-04-22 13:28 41.13712 36.73585 2685 ft 230 kts 307°
2026-04-22 13:29 41.14661 36.71904 2491 ft 223 kts 311°
2026-04-22 13:29 41.15657 36.70388 2364 ft 213 kts 315°
2026-04-22 13:29 41.16643 36.69002 2234 ft 203 kts 316°
2026-04-22 13:29 41.17582 36.67702 1968 ft 190 kts 316°
2026-04-22 13:30 41.18480 36.66454 1663 ft 178 kts 316°
2026-04-22 13:30 41.19300 36.65305 1459 ft 163 kts 316°
2026-04-22 13:30 41.20049 36.64253 1247 ft 148 kts 316°
2026-04-22 13:30 41.20725 36.63308 1058 ft 138 kts 316°
2026-04-22 13:31 41.21391 36.62381 910 ft 138 kts 316°
2026-04-22 13:31 41.22051 36.61474 731 ft 137 kts 315°
2026-04-22 13:31 41.22711 36.60553 546 ft 136 kts 314°
2026-04-22 13:31 41.23353 36.59631 397 ft 136 kts 314°
2026-04-22 13:32 41.24009 36.58730 213 ft 135 kts 315°
2026-04-22 13:32 41.24651 36.57827 48 ft 134 kts 314°
2026-04-22 13:32 41.25206 36.57049 27 ft 91 kts 312°
2026-04-22 13:32 41.25576 36.56528 28 ft 67 kts 314°
2026-04-22 13:33 41.25834 36.56157 30 ft 31 kts 317°
2026-04-22 13:33 41.25983 36.55961 28 ft 27 kts 313°
2026-04-22 13:33 41.26010 36.55836 26 ft 14 kts 241°
2026-04-22 13:33 41.25940 36.55747 27 ft 13 kts 223°
2026-04-22 13:34 41.25872 36.55666 29 ft 13 kts 218°
2026-04-22 13:34 41.25820 36.55607 29 ft 4 kts 226°
2026-04-22 13:34 41.25812 36.55596 29 ft 0 kts 224°